North Myrtle Beach, SC

1:51 PM EST on February 18, 2018 (GMT -0500)
Grand Strand

Weather History for KCRE - April, 2013

Change the Weather History Date:

Wednesday, April 17, 2013

  Actual Average Record
Temperature  
Mean Temperature 66 °F 62 °F  
Max Temperature 77 °F 72 °F 88 °F (1995)
Min Temperature 55 °F 52 °F 32 °F (1950)
Degree Days  
Heating Degree Days 0 4  
Month to date heating degree days 80 101  
Since 1 July heating degree days 2346 2383  
Cooling Degree Days 1 1  
Month to date cooling degree days 16 13  
Year to date cooling degree days 20 16  
Growing Degree Days 15 (Base 50)    
Moisture  
Dew Point 60 °F    
Average Humidity 82    
Maximum Humidity 100    
Minimum Humidity 64    
Precipitation  
Precipitation 0.00 in 0.08 in 0.50 in (2006)
Month to date precipitation 3.36 1.75  
Year to date precipitation 11.60 12.78  
Sea Level Pressure  
Sea Level Pressure 30.20 in    
Wind  
Wind Speed 3 mph (SSE)    
Max Wind Speed 12 mph    
Max Gust Speed 14 mph    
Visibility 7 miles    
Events      
T = Trace of Precipitation, MM = Missing Value Source: NWS Daily Summary

Daily Weather History Graph

Daily Weather History Graph

Search for Another Location

Airport or City:

Trip Planner

Search our weather history database for the weather conditions in past years. The results will help you decide how hot, cold, wet, or windy it might be!

Date:

Astronomy

Apr. 17, 2013 Rise Set
Actual Time 6:41 AM EDT 7:47 PM EDT
Civil Twilight 6:15 AM EDT 8:13 PM EDT
Nautical Twilight 5:45 AM EDT 8:44 PM EDT
Astronomical Twilight 5:13 AM EDT 9:16 PM EDT
Moon 11:59 AM EDT (4/17) 1:18 AM EDT (4/17)
Length of Visible Light 13h 57m
Length of Day
13h 06m
Waxing Crescent, 42% of the Moon is Illuminated
Apr 17
Waxing Crescent
Apr 18
First Quarter
Apr 25
Full
May 2
Last Quarter
May 9
New

Hourly Weather History & Observations

Time (EDT) Temp. Dew Point Humidity Pressure Visibility Wind Dir Wind Speed Gust Speed Precip Events Conditions
12:53 AM 60.1 °F 59.0 °F 96% 30.24 in 7.0 mi Calm Calm - N/A   Clear
1:53 AM 59.0 °F 57.0 °F 93% 30.22 in 5.0 mi Calm Calm - N/A   Clear
2:53 AM 57.9 °F 57.0 °F 97% 30.21 in 5.0 mi Calm Calm - N/A   Clear
3:53 AM 57.9 °F 57.0 °F 97% 30.21 in 2.0 mi Calm Calm - N/A   Clear
4:03 AM 57.2 °F 57.2 °F 100% 30.20 in 4.0 mi Calm Calm - N/A   Clear
4:09 AM 57.2 °F 57.2 °F 100% 30.20 in 1.8 mi Calm Calm - N/A   Clear
4:27 AM 57.2 °F 55.4 °F 94% 30.20 in 2.5 mi Calm Calm - N/A   Clear
4:35 AM 57.2 °F 55.4 °F 94% 30.20 in 5.0 mi Calm Calm - N/A   Clear
4:53 AM 57.0 °F 55.9 °F 96% 30.20 in 5.0 mi Calm Calm - N/A   Clear
5:23 AM 57.2 °F 55.4 °F 94% 30.20 in 1.8 mi Calm Calm - N/A   Clear
5:40 AM 55.4 °F 55.4 °F 100% 30.20 in 2.5 mi Calm Calm - N/A   Clear
5:53 AM 57.0 °F 55.9 °F 96% 30.20 in 2.5 mi Calm Calm - N/A   Clear
6:04 AM 55.4 °F 55.4 °F 100% 30.20 in 1.2 mi Calm Calm - N/A   Clear
6:16 AM 55.4 °F 55.4 °F 100% 30.20 in 2.0 mi Calm Calm - N/A   Clear
6:31 AM 55.4 °F 55.4 °F 100% 30.21 in 4.0 mi Calm Calm - N/A   Clear
6:53 AM 55.0 °F 54.0 °F 96% 30.23 in 4.0 mi Calm Calm - N/A   Clear
7:53 AM 60.1 °F 59.0 °F 96% 30.25 in 8.0 mi Calm Calm - N/A   Clear
8:53 AM 68.0 °F 63.0 °F 84% 30.25 in 10.0 mi Calm Calm - N/A   Clear
10:30 AM 73.4 °F 62.6 °F 69% 30.23 in 10.0 mi SE 4.6 mph - 0.01 in   Partly Cloudy
10:53 AM 73.0 °F 63.0 °F 71% 30.23 in 10.0 mi SSE 6.9 mph - 0.01 in   Unknown
11:53 AM 73.9 °F 63.0 °F 68% 30.22 in 10.0 mi SE 8.1 mph - N/A   Clear
12:53 PM 73.0 °F 64.0 °F 73% 30.21 in 10.0 mi Variable 6.9 mph - N/A   Clear
1:53 PM 75.0 °F 63.0 °F 66% 30.19 in 10.0 mi SSE 6.9 mph - N/A   Clear
2:53 PM 73.9 °F 63.0 °F 68% 30.18 in 10.0 mi South 6.9 mph - N/A   Clear
3:53 PM 73.0 °F 64.0 °F 73% 30.17 in 10.0 mi South 8.1 mph - N/A   Clear
4:53 PM 72.0 °F 63.0 °F 73% 30.17 in 10.0 mi SSE 9.2 mph - N/A   Clear
5:53 PM 72.0 °F 63.0 °F 73% 30.17 in 10.0 mi South 5.8 mph - N/A   Clear
6:53 PM 71.1 °F 62.1 °F 73% 30.16 in 10.0 mi SSE 5.8 mph - N/A   Clear
7:53 PM 68.0 °F 63.0 °F 84% 30.17 in 10.0 mi SE 4.6 mph - N/A   Clear
8:53 PM 68.0 °F 64.0 °F 87% 30.17 in 10.0 mi SSE 4.6 mph - N/A   Clear
9:53 PM 66.9 °F 64.0 °F 90% 30.19 in 10.0 mi SE 3.5 mph - N/A   Clear
10:53 PM 64.0 °F 62.1 °F 93% 30.19 in 10.0 mi Calm Calm - N/A   Clear
11:53 PM 62.1 °F 61.0 °F 96% 30.18 in 5.0 mi Calm Calm - N/A   Clear